This is the latest recevied weather packets stored in our database for station/object G8PZT. If no packets are shown the sender has not sent any weather packets the latest 10 day(s).
| Time | Temp. | Humidity | Pressure | Rain* | Wind** | Luminosity | Snow |
|---|---|---|---|---|---|---|---|
| 1787560802 | 19.44° C | 25% | - | 0 mm | - | - | - |
| 1787560717 | 19.44° C | 25% | - | 0 mm | - | - | - |
| 1787560117 | 18.89° C | 27% | - | 0 mm | - | - | - |
| 1787559602 | 18.89° C | 29% | - | 0 mm | - | - | - |
| 1787559517 | 18.89° C | 29% | - | 0 mm | - | - | - |
| 1787558917 | 18.33° C | 29% | - | 0 mm | - | - | - |
| 1787558403 | 18.33° C | 34% | - | 0 mm | - | - | - |
| 1787558318 | 18.33° C | 35% | - | 0 mm | - | - | - |
| 1787557718 | 17.22° C | 40% | - | 0 mm | - | - | - |
| 1787557118 | 16.67° C | 41% | - | 0 mm | - | - | - |
| 1787556518 | 15.56° C | 59% | - | 0 mm | - | - | - |
| 1787556002 | 15° C | 67% | - | 0 mm | - | - | - |
| 1787555918 | 15° C | 68% | - | 0 mm | - | - | - |
| 1787555318 | 13.89° C | 71% | - | 0 mm | - | - | - |
| 1787554801 | 13.33° C | 74% | - | 0 mm | - | - | - |
| 1787554718 | 13.33° C | 75% | - | 0 mm | - | - | - |
| 1787554118 | 12.22° C | 76% | - | 0 mm | - | - | - |
| 1787553602 | 12.22° C | 77% | - | 0 mm | - | - | - |
| 1787553518 | 12.22° C | 77% | - | 0 mm | - | - | - |
| 1787552917 | 11.67° C | 78% | - | 0 mm | - | - | - |
| 1787552402 | 11.11° C | 77% | - | 0 mm | - | - | - |
| 1787552317 | 11.11° C | 77% | - | 0 mm | - | - | - |
| 1787551717 | 9.44° C | 76% | - | 0 mm | - | - | - |
| 1787551202 | 8.33° C | 76% | - | 0 mm | - | - | - |
| 1787551118 | 8.33° C | 76% | - | 0 mm | - | - | - |
* Rain latest hour (hover to see other rain measurements)
** Current wind speed in m/s (hover to see current wind gust speed)